{"data":{"norad_id":62834,"epoch":"2026-05-25T04:23:55.646016Z","epoch_age_seconds":58419,"freshness":"FRESH","line1":"1 62834U 25019F   26145.18328294  .00177704  00000+0  13537-2 0  9991","line2":"2 62834  43.0015 204.6863 0001994 274.6608  85.4032 15.70931972 75922","mean_motion":15.70931972,"eccentricity":0.0001994,"inclination_deg":43.0015,"raan_deg":204.6863,"arg_perigee_deg":274.6608,"mean_anomaly_deg":85.4032,"bstar":0.0013537,"rev_number":7592,"period_min":91.665331514432,"perigee_km":354.88936798625,"apogee_km":357.57503442369,"semimajor_km":6734.369201205,"source":"CELESTRAK","updated_at":"2026-05-25T13:38:19.778948Z"}}